Hourly Data Report for November 28, 2019

EUREKA CLIMATE
NUNAVUT
Current Station Operator: ECCC - MSC

79°59'21.000" N
85°56'02.000" W
10.00 m
2401199
71613
NEK

Download Data

Hourly Data (November 2019)
Hourly Data Report for November 28, 2019
TIME
LST
Temp Definition
°C
Dew Point Definition
°C
Rel Hum Definition
%
Precip. Amount Definition
mm

Wind Dir Definition
10's deg

Wind Spd Definition
km/h
Visibility Definition
km
Stn Press Definition
kPa
Hmdx Definition


Wind Chill Definition


Weather Definition


00:00 -33.9 -37.2 73 0.0 10 8   102.09   -43 LegendNANA
01:00 -34.8 -38.1 72 0.0 3 7   102.07   -43 LegendNANA
02:00 -33.6 -36.8 73 0.0 7 4   102.03   -38 LegendNANA
03:00 -33.9 -37.2 72 0.0 12 6   102.02   -41 LegendNANA
04:00 -34.8 -38.1 71 0.0 4 7   101.98   -43 LegendNANA
05:00 -32.7 -35.8 73 0.0 11 11   101.93   -43 LegendNANA
06:00 -31.5 -34.5 75 0.0 2 10   101.90   -41 LegendNANA
07:00 -30.4 -33.3 76 0.0 13 2   101.85   -33 LegendNANA
08:00 -31.8 -34.9 74 0.0 10 4   101.81   -36 LegendNANA
09:00 -30.8 -33.7 76 0.0 9 5   101.76   -37 LegendNANA
10:00 -30.5 -33.3 76 0.0 12 9   101.73   -39 LegendNANA
11:00 -29.4 -32.1 77 0.0 7 2   101.63   -32 LegendNANA
12:00 -28.3 -30.9 78 0.0   0   101.57     LegendNANA
13:00 -27.7 -30.2 79 0.0 0 1   101.50   -29 LegendNANA
14:00 -27.2 -29.7 79 0.0   0   101.45     LegendNANA
15:00 -26.8 -29.3 80 0.0 0 1   101.37   -28 LegendNANA
16:00 -27.2 -29.8 79 0.0 7 2   101.29   -29 LegendNANA
17:00 -29.4 -32.1 77 0.0 11 13   101.26   -40 LegendNANA
18:00 -28.3 -30.9 78 0.0 5 3   101.17   -32 LegendNANA
19:00 -27.3 -29.8 79 0.0 2 7   101.07   -34 LegendNANA
20:00 -24.2 -26.4 82 0.0 29 14   101.01   -34 LegendNANA
21:00 -27.6 -30.2 79 0.0 11 11   100.94   -37 LegendNANA
22:00 -26.7 -29.1 80 0.0 11 8   100.87   -34 LegendNANA
23:00 -26.2 -28.7 80 0.0 4 5   100.79   -31 LegendNANA

Notes on Data Quality.

Legend

  • E = Estimated
  • M = Missing
  • NA = Not Available*
  • [empty] = Indicates an unobserved value
Date modified: